map of EDL home
EDL - Airport
Location
City:  Eldoret, Kenya
Name:Eldoret International Airport
ICAO:HKEL
IATA:EDL

Details
Type:Airport (Aerodrome, Airfield)
Use:International (customs port of entry)
Latitude:024'16"N (0.404458)
Longitude:3514'20"E (35.238928)
Datum:WGS 1984
Elevation:6941 ft (2116 m)
Variation:1.24E (WMM2015 magnetic declination)
0.05 annual change
Runways:1
Longest:11483 × 148 ft (3500 × 45 m), paved

Time
Time Zone:UTC+3
Local Time:

Weather
METAR:HKEL 281500Z 17004KT 9999 FEW022CB SCT090 BKN270 21/13 Q1024
TAF:HKEL 280500Z 2806/2906 08005KT 9999 SCT023 BKN080
BECMG 2808/2811 09010KT FEW022CB BKN090
TEMPO 2812/2818 18005KT -TSRA FEW019 BKN080
TEMPO 2820/2823 07005KT -RA SCT016 BKN080

Related Locations
Nearby:
Farthest:NHV: 11779 mi / 18956 km
Nuku Hiva, Marquesas Islands, PF

Find:

   beyond  
but within

Other Information
Maps:
NOTAMs:
Links:
Sources:

  
flag of Kenya   

Sectional Chart

Flight Planning
at skyvector.com

Satellite Image

Google Maps Satellite view

 

Copyright © 2004-2016 Karl L. Swartz. All rights reserved.
The Great Circle Mapper name and logo are trademarks of the Great Circle Mapper.
All other trademarks mentioned herein belong to their respective owners.
Please see credits for attibutions and further copyright information.

  Follow gcmap on Facebook Follow gcmap on Twitter Follow gcmap on Google+ GCmap on LinkedIn

hCard Microformat

Geo Microformat